Orbital Elements at Epoch 2459200.5 (2020-Dec-17.0) TDB
Reference: JPL 17 (heliocentric ecliptic J2000)
Element | Value | Uncertainty (1-sigma) | Units |
e | .1735291851756021 | 3.9559e-08 | |
a | 3.043112453899836 | 2.0433e-08 | au |
q | 2.515043629376871 | 1.2908e-07 | au |
i | 7.163347101578649 | 5.5155e-06 | deg |
node | 58.34085896239544 | 3.471e-05 | deg |
peri | 51.03027131973138 | 3.9354e-05 | deg |
M | 309.9722179015768 | 1.7908e-05 | deg |
tp | 2459469.953716296827 (2021-Sep-12.45371630) | 9.7526e-05 | TDB |
period | 1938.98937346485 5.31 | 1.9529e-05 5.347e-08 | d yr |
n | .1856637302538193 | 1.8699e-09 | deg/d |
Q | 3.571181278422801 | 2.3979e-08 | au |
|
| | Orbit Determination Parameters
Additional Information
|